| time (UTC) | temp F | wind direction | speed MPH | gust MPH | rain 1hr in | rain 24hr in | rain mn in | humidity % | barometer mb |
| 20260510094004 | 61 | 229 | 1.0 | 4.0 | 0.00 | 0.09 | 0.00 | 80 | 1013.6 |
| 20260510093525 | 60 | 119 | 1.0 | 3.0 | 0.00 | 0.09 | 0.00 | 80 | 1013.6 |
| 20260510093004 | 60 | 263 | 1.0 | 3.0 | 0.00 | 0.09 | 0.00 | 82 | 1013.6 |
| 20260510092504 | 60 | 260 | 1.0 | 4.0 | 0.00 | 0.09 | 0.00 | 84 | 1013.5 |
| 20260510092025 | 59 | 260 | 1.0 | 4.0 | 0.00 | 0.09 | 0.00 | 83 | 1013.7 |
| 20260510091504 | 59 | 186 | 1.0 | 3.0 | 0.00 | 0.09 | 0.00 | 88 | 1013.7 |
| 20260510091003 | 59 | 207 | 1.0 | 3.0 | 0.00 | 0.09 | 0.00 | 86 | 1013.8 |
| 20260510090503 | 59 | 223 | 1.0 | 3.0 | 0.00 | 0.09 | 0.00 | 87 | 1013.8 |
| 20260510090004 | 58 | 250 | 1.0 | 3.0 | 0.00 | 0.09 | 0.00 | 89 | 1013.6 |
| 20260510085504 | 57 | 2 | 1.0 | 4.0 | 0.00 | 0.09 | 0.00 | 91 | 1013.7 |
| 20260510085004 | 57 | 39 | 1.0 | 4.0 | 0.00 | 0.09 | 0.00 | 91 | 1013.8 |
| 20260510084503 | 57 | 259 | 0.0 | 2.0 | 0.00 | 0.09 | 0.00 | 92 | 1013.7 |
| 20260510084003 | 56 | 250 | 0.0 | 3.0 | 0.00 | 0.09 | 0.00 | 94 | 1013.7 |
| 20260510083504 | 56 | 251 | 0.0 | 3.0 | 0.00 | 0.09 | 0.00 | 100 | 1014.0 |
| 20260510083025 | 56 | 278 | 0.0 | 3.0 | 0.00 | 0.09 | 0.00 | 100 | 1013.7 |
| 20260510082524 | 56 | 306 | 0.0 | 3.0 | 0.00 | 0.09 | 0.00 | 100 | 1013.6 |
| 20260510082004 | 55 | 255 | 0.0 | 2.0 | 0.00 | 0.09 | 0.00 | 100 | 1013.6 |
| 20260510081503 | 54 | 246 | 0.0 | 2.0 | 0.00 | 0.09 | 0.00 | 100 | 1013.6 |
| 20260510081004 | 53 | 247 | 0.0 | 2.0 | 0.00 | 0.09 | 0.00 | 100 | 1013.8 |
| 20260510080504 | 53 | 248 | 0.0 | 2.0 | 0.00 | 0.09 | 0.00 | 100 | 1013.8 |
| 20260510080004 | 53 | 293 | 0.0 | 2.0 | 0.00 | 0.09 | 0.00 | 100 | 1013.6 |
| 20260510075503 | 53 | 301 | 0.0 | 2.0 | 0.00 | 0.09 | 0.00 | 100 | 1013.9 |
| 20260510075025 | 53 | 256 | 0.0 | 2.0 | 0.00 | 0.09 | 0.00 | 100 | 1013.7 |
| 20260510074504 | 53 | 246 | 0.0 | 1.0 | 0.00 | 0.09 | 0.00 | 100 | 1013.6 |
| 20260510074004 | 53 | 245 | 0.0 | 2.0 | 0.00 | 0.09 | 0.00 | 100 | 1013.6 |
| 20260510073503 | 53 | 245 | 0.0 | 2.0 | 0.00 | 0.09 | 0.00 | 100 | 1013.6 |
| 20260510073004 | 53 | 239 | 0.0 | 1.0 | 0.00 | 0.09 | 0.00 | 100 | 1013.5 |
| 20260510072524 | 53 | 250 | 0.0 | 1.0 | 0.00 | 0.09 | 0.00 | 100 | 1013.4 |
| 20260510072004 | 52 | 35 | 0.0 | 2.0 | 0.00 | 0.09 | 0.00 | 100 | 1013.4 |
| 20260510071504 | 52 | 38 | 1.0 | 3.0 | 0.00 | 0.09 | 0.00 | 100 | 1013.4 |
| 20260510071024 | 52 | 286 | 1.0 | 3.0 | 0.00 | 0.09 | 0.00 | 100 | 1013.5 |
| 20260510070503 | 52 | 245 | 1.0 | 2.0 | 0.00 | 0.09 | 0.00 | 100 | 1013.3 |
| 20260510070004 | 52 | 257 | 1.0 | 3.0 | 0.00 | 0.09 | 0.00 | 100 | 1013.4 |
| 20260510065524 | 52 | 265 | 1.0 | 3.0 | 0.00 | 0.09 | 0.00 | 100 | 1013.1 |
| 20260510065003 | 52 | 270 | 1.0 | 3.0 | 0.00 | 0.09 | 0.00 | 100 | 1013.1 |
| 20260510064503 | 52 | 261 | 1.0 | 2.0 | 0.00 | 0.09 | 0.00 | 100 | 1013.2 |
| 20260510064003 | 51 | 252 | 0.0 | 2.0 | 0.00 | 0.09 | 0.00 | 100 | 1013.1 |
| 20260510063503 | 51 | 243 | 0.0 | 1.0 | 0.00 | 0.09 | 0.00 | 100 | 1013.3 |
| 20260510063024 | 51 | 257 | 0.0 | 1.0 | 0.00 | 0.09 | 0.00 | 100 | 1013.2 |
| 20260510062525 | 51 | 263 | 0.0 | 1.0 | 0.00 | 0.09 | 0.00 | 100 | 1013.1 |
| 20260510062004 | 51 | 230 | 0.0 | 1.0 | 0.00 | 0.09 | 0.00 | 100 | 1013.2 |
| 20260510061504 | 51 | 0 | 0.0 | 0.0 | 0.00 | 0.09 | 0.00 | 100 | 1012.9 |
| 20260510061004 | 51 | 290 | 0.0 | 1.0 | 0.00 | 0.09 | 0.00 | 100 | 1013.1 |
| 20260510060503 | 51 | 336 | 0.0 | 1.0 | 0.00 | 0.09 | 0.00 | 100 | 1013.0 |
| 20260510060024 | 51 | 336 | 0.0 | 1.0 | 0.00 | 0.09 | 0.00 | 100 | 1013.1 |
| 20260510055503 | 51 | 251 | 0.0 | 1.0 | 0.00 | 0.09 | 0.00 | 100 | 1012.9 |
| 20260510055003 | 51 | 248 | 0.0 | 1.0 | 0.00 | 0.09 | 0.00 | 100 | 1013.0 |
| 20260510054504 | 51 | 251 | 0.0 | 2.0 | 0.00 | 0.09 | 0.00 | 100 | 1013.1 |
| 20260510054003 | 51 | 252 | 0.0 | 2.0 | 0.00 | 0.09 | 0.00 | 100 | 1013.0 |
| 20260510053503 | 51 | 123 | 0.0 | 2.0 | 0.00 | 0.09 | 0.00 | 100 | 1013.1 |
| 20260510053024 | 51 | 160 | 0.0 | 2.0 | 0.00 | 0.09 | 0.00 | 100 | 1013.1 |
| 20260510052524 | 52 | 243 | 0.0 | 1.0 | 0.00 | 0.09 | 0.00 | 100 | 1012.9 |
| 20260510052024 | 52 | 253 | 0.0 | 1.0 | 0.00 | 0.09 | 0.00 | 100 | 1013.1 |
| 20260510051503 | 52 | 0 | 0.0 | 0.0 | 0.00 | 0.09 | 0.00 | 100 | 1012.9 |
| 20260510051024 | 52 | 245 | 0.0 | 1.0 | 0.00 | 0.09 | 0.00 | 100 | 1012.7 |
| 20260510050503 | 51 | 243 | 0.0 | 1.0 | 0.00 | 0.09 | 0.00 | 100 | 1012.9 |
| 20260510050004 | 51 | 241 | 0.0 | 1.0 | 0.00 | 0.09 | 0.00 | 100 | 1012.7 |
| 20260510045503 | 51 | 0 | 0.0 | 0.0 | 0.00 | 0.09 | 0.00 | 100 | 1013.0 |
| 20260510045024 | 52 | 0 | 0.0 | 0.0 | 0.00 | 0.09 | 0.00 | 100 | 1012.9 |
| 20260510044524 | 52 | 0 | 0.0 | 0.0 | 0.00 | 0.09 | 0.00 | 100 | 1013.1 |
| 20260510044004 | 52 | 192 | 0.0 | 1.0 | 0.00 | 0.09 | 0.00 | 100 | 1013.0 |
| 20260510043504 | 52 | 192 | 0.0 | 1.0 | 0.00 | 0.09 | 0.00 | 100 | 1013.0 |
| 20260510043003 | 51 | 227 | 0.0 | 1.0 | 0.00 | 0.09 | 0.00 | 100 | 1012.9 |
| 20260510042503 | 52 | 229 | 0.0 | 1.0 | 0.00 | 0.09 | 0.00 | 100 | 1012.9 |
| 20260510042003 | 52 | 235 | 0.0 | 1.0 | 0.00 | 0.09 | 0.00 | 100 | 1013.0 |
| 20260510041503 | 52 | 0 | 0.0 | 0.0 | 0.00 | 0.09 | 0.00 | 100 | 1012.5 |
| 20260510041003 | 51 | 0 | 0.0 | 0.0 | 0.00 | 0.09 | 0.00 | 100 | 1012.6 |
| 20260510040503 | 51 | 0 | 0.0 | 0.0 | 0.00 | 0.09 | 0.00 | 100 | 1012.9 |
| 20260510040004 | 51 | 249 | 0.0 | 1.0 | 0.00 | 0.09 | 0.00 | 100 | 1013.1 |
| 20260510035524 | 51 | 250 | 0.0 | 1.0 | 0.00 | 0.09 | 0.00 | 100 | 1012.9 |
| 20260510035003 | 51 | 253 | 0.0 | 1.0 | 0.00 | 0.09 | 0.00 | 100 | 1013.1 |
| 20260510034503 | 51 | 249 | 0.0 | 1.0 | 0.00 | 0.09 | 0.00 | 100 | 1013.1 |
| 20260510034003 | 51 | 247 | 1.0 | 2.0 | 0.00 | 0.09 | 0.00 | 100 | 1013.1 |
| 20260510033503 | 51 | 256 | 1.0 | 3.0 | 0.00 | 0.09 | 0.00 | 100 | 1013.2 |
| 20260510033024 | 51 | 259 | 1.0 | 3.0 | 0.00 | 0.09 | 0.00 | 100 | 1013.2 |
| 20260510032524 | 52 | 252 | 0.0 | 3.0 | 0.00 | 0.09 | 0.00 | 100 | 1013.0 |
| 20260510032004 | 52 | 0 | 0.0 | 0.0 | 0.00 | 0.09 | 0.00 | 100 | 1013.2 |
| 20260510031503 | 52 | 191 | 0.0 | 1.0 | 0.00 | 0.09 | 0.00 | 100 | 1013.0 |
| 20260510031003 | 52 | 225 | 0.0 | 1.0 | 0.00 | 0.09 | 0.00 | 100 | 1013.3 |
| 20260510030503 | 52 | 241 | 0.0 | 1.0 | 0.00 | 0.09 | 0.00 | 100 | 1013.1 |
| 20260510030004 | 52 | 233 | 0.0 | 1.0 | 0.00 | 0.09 | 0.00 | 100 | 1013.2 |
| 20260510025503 | 52 | 171 | 0.0 | 1.0 | 0.00 | 0.09 | 0.00 | 100 | 1013.1 |
| 20260510025003 | 52 | 195 | 0.0 | 1.0 | 0.00 | 0.09 | 0.00 | 100 | 1013.1 |
| 20260510024503 | 52 | 221 | 0.0 | 1.0 | 0.00 | 0.09 | 0.00 | 100 | 1013.1 |
| 20260510024024 | 52 | 185 | 0.0 | 1.0 | 0.00 | 0.09 | 0.00 | 100 | 1013.1 |
| 20260510023524 | 52 | 185 | 0.0 | 1.0 | 0.00 | 0.09 | 0.00 | 100 | 1013.0 |
| 20260510023024 | 52 | 0 | 0.0 | 0.0 | 0.00 | 0.09 | 0.00 | 100 | 1013.3 |
| 20260510022503 | 52 | 0 | 0.0 | 0.0 | 0.00 | 0.09 | 0.00 | 100 | 1013.2 |
| 20260510022003 | 52 | 215 | 0.0 | 1.0 | 0.00 | 0.09 | 0.00 | 100 | 1013.2 |
| 20260510021503 | 52 | 215 | 0.0 | 1.0 | 0.00 | 0.09 | 0.00 | 100 | 1013.2 |
| 20260510021003 | 52 | 0 | 0.0 | 0.0 | 0.00 | 0.09 | 0.00 | 100 | 1013.5 |
| 20260510020503 | 52 | 233 | 0.0 | 1.0 | 0.00 | 0.09 | 0.00 | 100 | 1013.4 |
| 20260510020003 | 52 | 243 | 0.0 | 1.0 | 0.00 | 0.09 | 0.00 | 100 | 1013.5 |
| 20260510015503 | 52 | 247 | 1.0 | 1.0 | 0.00 | 0.09 | 0.00 | 100 | 1013.8 |
| 20260510015003 | 52 | 251 | 1.0 | 2.0 | 0.00 | 0.09 | 0.00 | 100 | 1013.6 |
| 20260510014503 | 52 | 250 | 0.0 | 2.0 | 0.00 | 0.09 | 0.00 | 100 | 1013.8 |
| 20260510014003 | 52 | 244 | 0.0 | 1.0 | 0.00 | 0.09 | 0.00 | 100 | 1013.6 |
| 20260510013503 | 53 | 244 | 0.0 | 1.0 | 0.00 | 0.09 | 0.00 | 100 | 1013.5 |
| 20260510013003 | 53 | 0 | 0.0 | 0.0 | 0.00 | 0.09 | 0.00 | 100 | 1013.5 |
| 20260510012503 | 53 | 0 | 0.0 | 0.0 | 0.00 | 0.09 | 0.00 | 100 | 1013.4 |
| 20260510012003 | 52 | 0 | 0.0 | 0.0 | 0.00 | 0.09 | 0.00 | 100 | 1013.5 |
| 20260510011503 | 52 | 0 | 0.0 | 0.0 | 0.00 | 0.09 | 0.00 | 100 | 1013.5 |
| 20260510011003 | 52 | 211 | 0.0 | 1.0 | 0.00 | 0.09 | 0.00 | 100 | 1013.4 |
| 20260510010524 | 52 | 213 | 0.0 | 1.0 | 0.00 | 0.09 | 0.00 | 100 | 1013.6 |
| 20260510010025 | 52 | 215 | 0.0 | 1.0 | 0.00 | 0.09 | 0.00 | 100 | 1013.3 |
| 20260510005504 | 52 | 0 | 0.0 | 0.0 | 0.00 | 0.09 | 0.00 | 100 | 1013.7 |
| 20260510005004 | 52 | 218 | 0.0 | 1.0 | 0.00 | 0.09 | 0.00 | 100 | 1013.6 |
| 20260510004504 | 52 | 218 | 0.0 | 1.0 | 0.00 | 0.09 | 0.00 | 100 | 1013.5 |
| 20260510004004 | 52 | 0 | 0.0 | 0.0 | 0.00 | 0.09 | 0.00 | 100 | 1013.5 |
| 20260510003525 | 52 | 0 | 0.0 | 0.0 | 0.00 | 0.09 | 0.00 | 100 | 1013.5 |
| 20260510003004 | 52 | 0 | 0.0 | 0.0 | 0.00 | 0.09 | 0.00 | 100 | 1013.3 |
| 20260510002504 | 52 | 223 | 0.0 | 1.0 | 0.00 | 0.09 | 0.00 | 100 | 1013.5 |
| 20260510002025 | 53 | 223 | 0.0 | 1.0 | 0.00 | 0.09 | 0.00 | 100 | 1013.1 |
| 20260510001504 | 53 | 0 | 0.0 | 0.0 | 0.00 | 0.09 | 0.00 | 100 | 1013.4 |
| 20260510001004 | 53 | 0 | 0.0 | 0.0 | 0.00 | 0.09 | 0.00 | 100 | 1013.4 |
| 20260510000504 | 53 | 0 | 0.0 | 0.0 | 0.00 | 0.09 | 0.00 | 100 | 1013.5 |
| 20260510000005 | 53 | 0 | 0.0 | 0.0 | 0.00 | 0.09 | 0.00 | 100 | 1013.7 |
| 20260509235504 | 53 | 0 | 0.0 | 0.0 | 0.00 | 0.09 | 0.09 | 100 | 1013.7 |
| 20260509235025 | 53 | 0 | 0.0 | 0.0 | 0.00 | 0.09 | 0.09 | 100 | 1013.9 |
| 20260509234504 | 53 | 235 | 0.0 | 1.0 | 0.00 | 0.09 | 0.09 | 100 | 1014.0 |
| 20260509234005 | 53 | 242 | 0.0 | 1.0 | 0.00 | 0.09 | 0.09 | 100 | 1013.9 |
| 20260509233504 | 53 | 244 | 0.0 | 1.0 | 0.00 | 0.09 | 0.09 | 100 | 1013.9 |
| 20260509233004 | 53 | 0 | 0.0 | 0.0 | 0.00 | 0.09 | 0.09 | 100 | 1014.0 |
| 20260509232504 | 54 | 0 | 0.0 | 0.0 | 0.00 | 0.09 | 0.09 | 100 | 1014.0 |
| 20260509232004 | 54 | 0 | 0.0 | 0.0 | 0.00 | 0.09 | 0.09 | 100 | 1014.0 |
| 20260509231525 | 54 | 0 | 0.0 | 0.0 | 0.00 | 0.09 | 0.09 | 100 | 1014.1 |
| 20260509231005 | 54 | 0 | 0.0 | 0.0 | 0.00 | 0.09 | 0.09 | 100 | 1014.0 |
| 20260509230504 | 54 | 0 | 0.0 | 0.0 | 0.00 | 0.09 | 0.09 | 100 | 1014.1 |
| 20260509230004 | 54 | 0 | 0.0 | 0.0 | 0.00 | 0.09 | 0.09 | 100 | 1013.9 |
| 20260509225504 | 54 | 0 | 0.0 | 0.0 | 0.00 | 0.09 | 0.09 | 100 | 1014.0 |
| 20260509225025 | 54 | 0 | 0.0 | 0.0 | 0.00 | 0.09 | 0.09 | 100 | 1014.1 |
| 20260509224504 | 54 | 0 | 0.0 | 0.0 | 0.00 | 0.09 | 0.09 | 100 | 1014.1 |
| 20260509224004 | 54 | 0 | 0.0 | 0.0 | 0.00 | 0.09 | 0.09 | 100 | 1014.2 |
| 20260509223504 | 54 | 242 | 0.0 | 1.0 | 0.00 | 0.09 | 0.09 | 100 | 1014.2 |
| 20260509223025 | 54 | 243 | 0.0 | 2.0 | 0.00 | 0.09 | 0.09 | 100 | 1014.2 |
| 20260509222504 | 54 | 237 | 0.0 | 2.0 | 0.00 | 0.09 | 0.09 | 100 | 1014.5 |
| 20260509222004 | 54 | 269 | 0.0 | 1.0 | 0.00 | 0.09 | 0.09 | 100 | 1014.3 |
| 20260509221504 | 54 | 279 | 0.0 | 1.0 | 0.00 | 0.09 | 0.09 | 100 | 1014.2 |
| 20260509221004 | 54 | 293 | 0.0 | 1.0 | 0.00 | 0.09 | 0.09 | 100 | 1013.9 |
| 20260509220504 | 53 | 0 | 0.0 | 0.0 | 0.00 | 0.09 | 0.09 | 100 | 1014.0 |
| 20260509220004 | 53 | 223 | 0.0 | 1.0 | 0.00 | 0.09 | 0.09 | 100 | 1014.0 |
| 20260509215525 | 53 | 223 | 0.0 | 1.0 | 0.00 | 0.09 | 0.09 | 100 | 1013.9 |
| 20260509215004 | 53 | 0 | 0.0 | 0.0 | 0.00 | 0.09 | 0.09 | 100 | 1014.0 |
| 20260509214525 | 53 | 0 | 0.0 | 0.0 | 0.00 | 0.09 | 0.09 | 100 | 1014.2 |
| 20260509214004 | 54 | 223 | 0.0 | 1.0 | 0.00 | 0.09 | 0.09 | 100 | 1014.1 |
| 20260509213504 | 54 | 225 | 0.0 | 1.0 | 0.00 | 0.09 | 0.09 | 100 | 1013.9 |
| 20260509213004 | 54 | 227 | 0.0 | 1.0 | 0.00 | 0.09 | 0.09 | 100 | 1014.0 |
| 20260509212504 | 54 | 0 | 0.0 | 0.0 | 0.00 | 0.09 | 0.09 | 100 | 1014.1 |
| 20260509212025 | 54 | 0 | 0.0 | 0.0 | 0.00 | 0.09 | 0.09 | 100 | 1013.7 |
| 20260509211504 | 54 | 0 | 0.0 | 0.0 | 0.00 | 0.09 | 0.09 | 100 | 1013.9 |
| 20260509211004 | 53 | 0 | 0.0 | 0.0 | 0.00 | 0.09 | 0.09 | 100 | 1014.0 |
| 20260509210504 | 54 | 0 | 0.0 | 0.0 | 0.00 | 0.09 | 0.09 | 100 | 1014.0 |
| 20260509210004 | 54 | 0 | 0.0 | 0.0 | 0.00 | 0.09 | 0.09 | 100 | 1014.0 |
| 20260509205504 | 53 | 225 | 0.0 | 1.0 | 0.00 | 0.09 | 0.09 | 100 | 1014.0 |
| 20260509205004 | 53 | 225 | 0.0 | 1.0 | 0.00 | 0.09 | 0.09 | 100 | 1013.9 |
| 20260509204504 | 54 | 219 | 0.0 | 1.0 | 0.00 | 0.09 | 0.09 | 100 | 1013.8 |
| 20260509204004 | 54 | 219 | 0.0 | 1.0 | 0.00 | 0.09 | 0.09 | 100 | 1013.9 |
| 20260509203504 | 54 | 0 | 0.0 | 0.0 | 0.00 | 0.09 | 0.09 | 100 | 1013.7 |
| 20260509203004 | 54 | 0 | 0.0 | 0.0 | 0.00 | 0.09 | 0.09 | 100 | 1013.7 |
| 20260509202525 | 54 | 312 | 0.0 | 1.0 | 0.00 | 0.09 | 0.09 | 100 | 1013.6 |
| 20260509202025 | 54 | 297 | 0.0 | 1.0 | 0.00 | 0.09 | 0.09 | 100 | 1013.6 |
| 20260509201504 | 54 | 0 | 0.0 | 0.0 | 0.00 | 0.09 | 0.09 | 100 | 1013.6 |
| 20260509201004 | 54 | 0 | 0.0 | 0.0 | 0.00 | 0.09 | 0.09 | 100 | 1013.5 |
| 20260509200525 | 54 | 235 | 0.0 | 1.0 | 0.00 | 0.09 | 0.09 | 100 | 1013.3 |
| 20260509200004 | 54 | 231 | 0.0 | 1.0 | 0.00 | 0.09 | 0.09 | 100 | 1013.3 |
| 20260509195504 | 54 | 231 | 0.0 | 1.0 | 0.00 | 0.09 | 0.09 | 100 | 1013.0 |
| 20260509195004 | 54 | 0 | 0.0 | 0.0 | 0.00 | 0.09 | 0.09 | 100 | 1013.2 |
| 20260509194504 | 54 | 0 | 0.0 | 0.0 | 0.00 | 0.09 | 0.09 | 100 | 1013.0 |
| 20260509194025 | 54 | 0 | 0.0 | 0.0 | 0.00 | 0.09 | 0.09 | 100 | 1013.1 |
| 20260509193504 | 54 | 0 | 0.0 | 0.0 | 0.00 | 0.09 | 0.09 | 100 | 1013.1 |
| 20260509193004 | 54 | 243 | 0.0 | 1.0 | 0.00 | 0.09 | 0.09 | 100 | 1012.9 |
| 20260509192504 | 54 | 235 | 0.0 | 1.0 | 0.00 | 0.09 | 0.09 | 100 | 1012.7 |
| 20260509192025 | 54 | 219 | 0.0 | 1.0 | 0.00 | 0.09 | 0.09 | 100 | 1012.9 |
| 20260509191525 | 54 | 0 | 0.0 | 0.0 | 0.00 | 0.09 | 0.09 | 100 | 1012.6 |
| 20260509191004 | 54 | 0 | 0.0 | 0.0 | 0.00 | 0.09 | 0.09 | 100 | 1012.7 |
| 20260509190504 | 54 | 0 | 0.0 | 0.0 | 0.00 | 0.09 | 0.09 | 100 | 1012.5 |
| 20260509190004 | 54 | 213 | 0.0 | 1.0 | 0.00 | 0.09 | 0.09 | 100 | 1012.5 |
| 20260509185504 | 54 | 208 | 0.0 | 1.0 | 0.00 | 0.09 | 0.09 | 100 | 1012.4 |
| 20260509185004 | 54 | 221 | 0.0 | 1.0 | 0.00 | 0.09 | 0.09 | 100 | 1012.5 |
| 20260509184504 | 54 | 227 | 0.0 | 1.0 | 0.00 | 0.09 | 0.09 | 100 | 1012.4 |
| 20260509184004 | 54 | 224 | 0.0 | 1.0 | 0.00 | 0.09 | 0.09 | 100 | 1012.5 |
| 20260509183504 | 54 | 223 | 0.0 | 1.0 | 0.00 | 0.09 | 0.09 | 100 | 1012.4 |
| 20260509183004 | 54 | 222 | 0.0 | 1.0 | 0.00 | 0.09 | 0.09 | 100 | 1012.2 |
| 20260509182504 | 54 | 214 | 0.0 | 1.0 | 0.01 | 0.09 | 0.09 | 100 | 1012.2 |
| 20260509182004 | 54 | 227 | 0.0 | 2.0 | 0.01 | 0.09 | 0.09 | 100 | 1012.3 |
| 20260509181504 | 54 | 230 | 0.0 | 2.0 | 0.01 | 0.09 | 0.09 | 100 | 1012.1 |
| 20260509181004 | 54 | 200 | 0.0 | 2.0 | 0.01 | 0.09 | 0.09 | 100 | 1012.0 |
| 20260509180504 | 54 | 186 | 0.0 | 2.0 | 0.01 | 0.09 | 0.09 | 100 | 1012.1 |
| 20260509180004 | 54 | 224 | 0.0 | 2.0 | 0.01 | 0.09 | 0.09 | 100 | 1011.7 |
| 20260509175525 | 54 | 179 | 0.0 | 2.0 | 0.03 | 0.09 | 0.09 | 100 | 1011.8 |
| 20260509175025 | 54 | 138 | 0.0 | 2.0 | 0.06 | 0.09 | 0.09 | 100 | 1011.7 |
| 20260509174504 | 54 | 164 | 0.0 | 2.0 | 0.07 | 0.09 | 0.09 | 100 | 1011.7 |
| 20260509174004 | 54 | 179 | 0.0 | 1.0 | 0.08 | 0.09 | 0.09 | 100 | 1011.7 |
| 20260509173504 | 54 | 178 | 0.0 | 1.0 | 0.09 | 0.09 | 0.09 | 100 | 1011.7 |
| 20260509173004 | 54 | 184 | 0.0 | 2.0 | 0.09 | 0.09 | 0.09 | 100 | 1011.8 |
| 20260509172504 | 54 | 167 | 0.0 | 2.0 | 0.08 | 0.08 | 0.08 | 100 | 1011.7 |
| 20260509172004 | 54 | 212 | 0.0 | 2.0 | 0.08 | 0.08 | 0.08 | 100 | 1011.5 |
| 20260509171504 | 55 | 285 | 1.0 | 4.0 | 0.08 | 0.08 | 0.08 | 100 | 1011.6 |
| 20260509171004 | 55 | 274 | 2.0 | 4.0 | 0.08 | 0.08 | 0.08 | 97 | 1011.7 |
| 20260509170504 | 54 | 273 | 3.0 | 8.0 | 0.08 | 0.08 | 0.08 | 97 | 1011.7 |
| 20260509170004 | 55 | 268 | 3.0 | 8.0 | 0.08 | 0.08 | 0.08 | 96 | 1011.7 |
| 20260509165504 | 55 | 270 | 3.0 | 6.0 | 0.06 | 0.06 | 0.06 | 95 | 1011.7 |
| 20260509165004 | 55 | 272 | 3.0 | 7.0 | 0.03 | 0.03 | 0.03 | 92 | 1011.8 |
| 20260509164504 | 56 | 257 | 3.0 | 7.0 | 0.02 | 0.02 | 0.02 | 88 | 1011.7 |
| 20260509164004 | 58 | 252 | 2.0 | 6.0 | 0.01 | 0.01 | 0.01 | 86 | 1011.9 |
| 20260509163504 | 60 | 248 | 1.0 | 3.0 | 0.00 | 0.00 | 0.00 | 84 | 1011.8 |
| 20260509163004 | 60 | 251 | 1.0 | 4.0 | 0.00 | 0.00 | 0.00 | 83 | 1011.6 |
| 20260509162504 | 60 | 251 | 2.0 | 6.0 | 0.00 | 0.00 | 0.00 | 81 | 1011.7 |
| 20260509162004 | 61 | 273 | 2.0 | 6.0 | 0.00 | 0.00 | 0.00 | 78 | 1011.8 |
| 20260509161004 | 62 | 270 | 2.0 | 6.0 | 0.00 | 0.00 | 0.00 | 75 | 1011.9 |
| 20260509160504 | 62 | 275 | 2.0 | 6.0 | 0.00 | 0.00 | 0.00 | 72 | 1011.9 |
| 20260509160025 | 62 | 269 | 1.0 | 6.0 | 0.00 | 0.00 | 0.00 | 73 | 1012.1 |
| 20260509155658 | 62 | 254 | 1.0 | 6.0 | 0.00 | 0.00 | 0.00 | 72 | 1012.1 |
| 20260509154504 | 64 | 261 | 1.0 | 3.0 | 0.00 | 0.00 | 0.00 | 71 | 1011.8 |
| 20260509154005 | 64 | 266 | 1.0 | 3.0 | 0.00 | 0.00 | 0.00 | 72 | 1011.8 |
| 20260509153525 | 64 | 180 | 0.0 | 2.0 | 0.00 | 0.00 | 0.00 | 71 | 1011.8 |
| 20260509153025 | 64 | 199 | 0.0 | 2.0 | 0.00 | 0.00 | 0.00 | 70 | 1011.7 |
| 20260509152504 | 64 | 267 | 1.0 | 3.0 | 0.00 | 0.00 | 0.00 | 70 | 1011.6 |
| 20260509152004 | 63 | 58 | 1.0 | 3.0 | 0.00 | 0.00 | 0.00 | 71 | 1011.6 |
| 20260509151504 | 64 | 64 | 1.0 | 4.0 | 0.00 | 0.00 | 0.00 | 70 | 1011.5 |
| 20260509151004 | 63 | 62 | 1.0 | 4.0 | 0.00 | 0.00 | 0.00 | 72 | 1011.3 |
| 20260509150525 | 63 | 74 | 1.0 | 3.0 | 0.00 | 0.00 | 0.00 | 72 | 1011.5 |
| 20260509150004 | 63 | 70 | 1.0 | 3.0 | 0.00 | 0.00 | 0.00 | 73 | 1011.4 |
| 20260509145504 | 62 | 73 | 2.0 | 4.0 | 0.00 | 0.00 | 0.00 | 74 | 1011.4 |
| 20260509145004 | 62 | 79 | 2.0 | 4.0 | 0.00 | 0.00 | 0.00 | 73 | 1011.2 |
| 20260509144525 | 63 | 79 | 2.0 | 6.0 | 0.00 | 0.00 | 0.00 | 72 | 1011.3 |
| 20260509144004 | 63 | 91 | 2.0 | 6.0 | 0.00 | 0.00 | 0.00 | 73 | 1011.5 |
| 20260509143525 | 63 | 110 | 1.0 | 6.0 | 0.00 | 0.00 | 0.00 | 73 | 1011.3 |
| 20260509143025 | 64 | 251 | 1.0 | 3.0 | 0.00 | 0.00 | 0.00 | 71 | 1011.4 |
| 20260509142504 | 63 | 255 | 1.0 | 3.0 | 0.00 | 0.00 | 0.00 | 71 | 1011.5 |
| 20260509142004 | 64 | 248 | 1.0 | 2.0 | 0.00 | 0.00 | 0.00 | 71 | 1011.7 |
| 20260509141504 | 64 | 260 | 0.0 | 2.0 | 0.00 | 0.00 | 0.00 | 70 | 1011.8 |
| 20260509141025 | 64 | 250 | 0.0 | 1.0 | 0.00 | 0.00 | 0.00 | 70 | 1012.0 |
| 20260509140504 | 64 | 251 | 0.0 | 3.0 | 0.00 | 0.00 | 0.00 | 73 | 1012.2 |
| 20260509140005 | 63 | 251 | 1.0 | 3.0 | 0.00 | 0.00 | 0.00 | 75 | 1012.2 |
| 20260509135504 | 62 | 272 | 2.0 | 4.0 | 0.00 | 0.00 | 0.00 | 73 | 1012.2 |
| 20260509135025 | 62 | 292 | 3.0 | 7.0 | 0.00 | 0.00 | 0.00 | 75 | 1012.2 |
| 20260509134504 | 62 | 291 | 3.0 | 7.0 | 0.00 | 0.00 | 0.00 | 73 | 1012.4 |
| 20260509134004 | 62 | 280 | 2.0 | 6.0 | 0.00 | 0.00 | 0.00 | 74 | 1012.7 |
| 20260509133504 | 63 | 244 | 0.0 | 3.0 | 0.00 | 0.00 | 0.00 | 73 | 1012.7 |
| 20260509133004 | 63 | 237 | 0.0 | 3.0 | 0.00 | 0.00 | 0.00 | 71 | 1012.9 |
| 20260509132504 | 63 | 53 | 1.0 | 4.0 | 0.00 | 0.00 | 0.00 | 71 | 1012.9 |
| 20260509132004 | 63 | 36 | 1.0 | 4.0 | 0.00 | 0.00 | 0.00 | 74 | 1012.6 |
| 20260509131504 | 63 | 309 | 0.0 | 3.0 | 0.00 | 0.00 | 0.00 | 75 | 1012.6 |
| 20260509131004 | 63 | 286 | 0.0 | 3.0 | 0.00 | 0.00 | 0.00 | 71 | 1012.7 |
| 20260509130525 | 63 | 246 | 0.0 | 3.0 | 0.00 | 0.00 | 0.00 | 71 | 1012.5 |
| 20260509130004 | 63 | 260 | 1.0 | 4.0 | 0.00 | 0.00 | 0.00 | 68 | 1012.7 |
| 20260509125504 | 63 | 260 | 2.0 | 4.0 | 0.00 | 0.00 | 0.00 | 74 | 1012.7 |
| 20260509125004 | 63 | 278 | 2.0 | 7.0 | 0.00 | 0.00 | 0.00 | 71 | 1012.9 |
| 20260509124504 | 63 | 288 | 2.0 | 9.0 | 0.00 | 0.00 | 0.00 | 70 | 1013.0 |
| 20260509124025 | 63 | 280 | 2.0 | 9.0 | 0.00 | 0.00 | 0.00 | 70 | 1012.9 |
| 20260509123504 | 63 | 90 | 1.0 | 3.0 | 0.00 | 0.00 | 0.00 | 71 | 1013.0 |
| 20260509123004 | 63 | 51 | 1.0 | 3.0 | 0.00 | 0.00 | 0.00 | 72 | 1013.1 |
| 20260509122504 | 62 | 41 | 1.0 | 4.0 | 0.00 | 0.00 | 0.00 | 75 | 1013.1 |
| 20260509122004 | 63 | 18 | 1.0 | 4.0 | 0.00 | 0.00 | 0.00 | 74 | 1013.2 |
| 20260509121504 | 63 | 280 | 1.0 | 6.0 | 0.00 | 0.00 | 0.00 | 75 | 1013.3 |
| 20260509121004 | 62 | 277 | 1.0 | 6.0 | 0.00 | 0.00 | 0.00 | 74 | 1013.4 |
| 20260509120504 | 62 | 260 | 1.0 | 4.0 | 0.00 | 0.00 | 0.00 | 74 | 1013.4 |
| 20260509120004 | 62 | 311 | 1.0 | 4.0 | 0.00 | 0.00 | 0.00 | 72 | 1013.5 |
| 20260509115504 | 62 | 35 | 1.0 | 4.0 | 0.00 | 0.00 | 0.00 | 77 | 1013.6 |
| 20260509115004 | 62 | 58 | 1.0 | 4.0 | 0.00 | 0.00 | 0.00 | 74 | 1013.6 |
| 20260509114504 | 62 | 79 | 1.0 | 4.0 | 0.00 | 0.00 | 0.00 | 73 | 1013.6 |
| 20260509114004 | 63 | 69 | 1.0 | 4.0 | 0.00 | 0.00 | 0.00 | 73 | 1013.2 |
| 20260509113504 | 64 | 71 | 1.0 | 3.0 | 0.00 | 0.00 | 0.00 | 72 | 1013.4 |
| 20260509113004 | 64 | 74 | 0.0 | 3.0 | 0.00 | 0.00 | 0.00 | 69 | 1013.2 |
| 20260509112504 | 64 | 269 | 0.0 | 2.0 | 0.00 | 0.00 | 0.00 | 70 | 1013.3 |
| 20260509112004 | 64 | 254 | 0.0 | 2.0 | 0.00 | 0.00 | 0.00 | 71 | 1013.4 |
| 20260509111504 | 63 | 242 | 0.0 | 1.0 | 0.00 | 0.00 | 0.00 | 72 | 1013.4 |
| 20260509111004 | 63 | 16 | 1.0 | 3.0 | 0.00 | 0.00 | 0.00 | 71 | 1013.4 |
| 20260509110504 | 62 | 62 | 1.0 | 3.0 | 0.00 | 0.00 | 0.00 | 69 | 1013.6 |
| 20260509110004 | 63 | 20 | 1.0 | 2.0 | 0.00 | 0.00 | 0.00 | 70 | 1013.4 |
| 20260509105504 | 63 | 14 | 1.0 | 4.0 | 0.00 | 0.00 | 0.00 | 69 | 1013.6 |
| 20260509105004 | 63 | 27 | 1.0 | 4.0 | 0.00 | 0.00 | 0.00 | 70 | 1013.8 |
| 20260509104504 | 63 | 12 | 1.0 | 4.0 | 0.00 | 0.00 | 0.00 | 70 | 1014.0 |
| 20260509104004 | 63 | 155 | 0.0 | 3.0 | 0.00 | 0.00 | 0.00 | 71 | 1013.8 |
| 20260509103504 | 62 | 46 | 1.0 | 4.0 | 0.00 | 0.00 | 0.00 | 72 | 1014.0 |
| 20260509103004 | 62 | 45 | 1.0 | 4.0 | 0.00 | 0.00 | 0.00 | 69 | 1014.1 |
| 20260509102504 | 62 | 55 | 0.0 | 3.0 | 0.00 | 0.00 | 0.00 | 72 | 1014.1 |
| 20260509102004 | 62 | 322 | 0.0 | 2.0 | 0.00 | 0.00 | 0.00 | 71 | 1014.3 |
| 20260509101504 | 62 | 249 | 0.0 | 2.0 | 0.00 | 0.00 | 0.00 | 69 | 1014.2 |
| 20260509101004 | 62 | 273 | 1.0 | 3.0 | 0.00 | 0.00 | 0.00 | 69 | 1014.2 |
| 20260509100504 | 62 | 270 | 1.0 | 3.0 | 0.00 | 0.00 | 0.00 | 73 | 1014.0 |
| 20260509100005 | 62 | 255 | 1.0 | 2.0 | 0.00 | 0.00 | 0.00 | 71 | 1014.0 |
| 20260509095504 | 62 | 254 | 1.0 | 2.0 | 0.00 | 0.00 | 0.00 | 72 | 1014.1 |
| 20260509095004 | 62 | 252 | 0.0 | 2.0 | 0.00 | 0.00 | 0.00 | 71 | 1013.8 |
| 20260509094525 | 62 | 213 | 0.0 | 1.0 | 0.00 | 0.00 | 0.00 | 67 | 1013.9 |